TimeEST,TemperatureF,Dew PointF,Humidity,Sea Level PressureIn,VisibilityMPH,Wind Direction,Wind SpeedMPH,Gust SpeedMPH,PrecipitationIn,Events,Conditions,WindDirDegrees,DateUTC
12:15 AM,43.5,32.5,65,30.15,10.0,Calm,Calm,-,N/A,,Overcast,0,2013-01-07 05:15:00
1:15 AM,43.5,32.5,65,30.16,10.0,NNW,3.5,-,N/A,,Overcast,340,2013-01-07 06:15:00
1:35 AM,42.3,33.4,71,30.17,10.0,NNW,3.5,-,N/A,,Overcast,330,2013-01-07 06:35:00
1:55 AM,41.9,34.2,74,30.18,10.0,Calm,Calm,-,N/A,,Overcast,0,2013-01-07 06:55:00
2:15 AM,42.1,34.3,74,30.18,10.0,Calm,Calm,-,N/A,,Overcast,0,2013-01-07 07:15:00
2:35 AM,41.5,34.7,77,30.19,10.0,Calm,Calm,-,N/A,,Overcast,0,2013-01-07 07:35:00
2:55 AM,42.8,33.4,70,30.20,10.0,North,3.5,-,N/A,,Overcast,350,2013-01-07 07:55:00
3:15 AM,43.9,32.4,64,30.20,10.0,NNW,3.5,-,N/A,,Overcast,340,2013-01-07 08:15:00
3:35 AM,45.3,32.0,60,30.22,10.0,NNW,6.9,-,N/A,,Overcast,340,2013-01-07 08:35:00
3:55 AM,45.5,32.0,59,30.22,10.0,NNW,9.2,-,N/A,,Overcast,340,2013-01-07 08:55:00
4:15 AM,45.7,32.0,59,30.23,10.0,NNW,6.9,16.1,N/A,,Overcast,340,2013-01-07 09:15:00
4:35 AM,45.5,31.6,58,30.24,10.0,NNW,6.9,-,N/A,,Overcast,330,2013-01-07 09:35:00
4:55 AM,44.8,31.6,60,30.25,10.0,NNW,9.2,17.3,N/A,,Mostly Cloudy,340,2013-01-07 09:55:00
5:15 AM,44.6,31.1,59,30.26,10.0,North,6.9,-,N/A,,Mostly Cloudy,350,2013-01-07 10:15:00
5:35 AM,43.5,31.1,62,30.26,10.0,North,3.5,-,N/A,,Scattered Clouds,10,2013-01-07 10:35:00
5:55 AM,42.1,30.9,65,30.28,10.0,NNW,3.5,-,N/A,,Clear,340,2013-01-07 10:55:00
6:15 AM,42.1,30.7,64,30.29,10.0,NNE,4.6,-,N/A,,Scattered Clouds,20,2013-01-07 11:15:00
6:35 AM,44.1,30.6,59,30.30,10.0,North,6.9,-,N/A,,Overcast,350,2013-01-07 11:35:00
6:55 AM,45.0,30.6,57,30.31,10.0,North,8.1,16.1,N/A,,Overcast,360,2013-01-07 11:55:00
7:15 AM,45.1,30.4,56,30.32,10.0,NNW,8.1,-,N/A,,Overcast,340,2013-01-07 12:15:00
7:35 AM,44.8,30.7,58,30.34,10.0,NNW,6.9,-,N/A,,Overcast,340,2013-01-07 12:35:00
7:55 AM,44.8,30.7,58,30.36,10.0,North,6.9,-,N/A,,Overcast,350,2013-01-07 12:55:00
8:15 AM,44.8,30.4,57,30.37,10.0,NNW,8.1,-,N/A,,Overcast,340,2013-01-07 13:15:00
8:35 AM,44.8,29.3,55,30.38,10.0,North,8.1,18.4,N/A,,Overcast,350,2013-01-07 13:35:00
8:55 AM,44.8,29.3,55,30.38,10.0,NNW,10.4,-,N/A,,Overcast,340,2013-01-07 13:55:00
9:15 AM,44.6,28.4,53,30.40,10.0,NNW,11.5,17.3,N/A,,Overcast,340,2013-01-07 14:15:00
9:35 AM,44.6,27.9,52,30.43,10.0,NNW,6.9,17.3,N/A,,Overcast,340,2013-01-07 14:35:00
9:55 AM,45.0,27.5,50,30.44,10.0,NNW,11.5,17.3,N/A,,Overcast,330,2013-01-07 14:55:00
10:15 AM,44.8,27.3,50,30.45,10.0,North,11.5,17.3,N/A,,Overcast,350,2013-01-07 15:15:00
10:35 AM,45.0,27.5,50,30.46,10.0,North,9.2,16.1,N/A,,Overcast,360,2013-01-07 15:35:00
10:55 AM,44.8,27.0,50,30.45,10.0,NNE,10.4,-,N/A,,Mostly Cloudy,30,2013-01-07 15:55:00
11:15 AM,46.9,27.5,47,30.44,10.0,NW,12.7,17.3,N/A,,Scattered Clouds,320,2013-01-07 16:15:00
11:35 AM,46.9,27.7,47,30.44,10.0,NW,12.7,19.6,N/A,,Clear,310,2013-01-07 16:35:00
11:55 AM,47.3,27.5,46,30.43,10.0,WNW,11.5,-,N/A,,Clear,300,2013-01-07 16:55:00
12:15 PM,47.7,27.1,45,30.42,10.0,NW,10.4,16.1,N/A,,Clear,310,2013-01-07 17:15:00
12:35 PM,47.3,26.6,45,30.42,10.0,NNE,5.8,-,N/A,,Clear,20,2013-01-07 17:35:00
12:55 PM,47.7,27.1,45,30.40,10.0,NNW,8.1,-,N/A,,Clear,340,2013-01-07 17:55:00
1:15 PM,48.2,27.1,44,30.40,10.0,NNW,4.6,16.1,N/A,,Clear,330,2013-01-07 18:15:00
1:35 PM,48.0,27.5,45,30.40,10.0,NW,6.9,-,N/A,,Clear,320,2013-01-07 18:35:00
1:55 PM,48.4,27.7,45,30.40,10.0,NNW,6.9,-,N/A,,Clear,330,2013-01-07 18:55:00
2:15 PM,48.2,27.5,45,30.40,10.0,WNW,8.1,-,N/A,,Clear,300,2013-01-07 19:15:00
2:35 PM,47.8,27.1,45,30.41,10.0,West,5.8,-,N/A,,Clear,280,2013-01-07 19:35:00
2:55 PM,48.0,26.8,44,30.42,10.0,NNW,3.5,-,N/A,,Clear,340,2013-01-07 19:55:00
3:15 PM,47.7,27.0,45,30.42,10.0,NW,8.1,-,N/A,,Clear,310,2013-01-07 20:15:00
3:35 PM,47.5,27.0,45,30.42,10.0,North,4.6,-,N/A,,Clear,10,2013-01-07 20:35:00
3:55 PM,47.3,26.6,45,30.42,10.0,NW,3.5,-,N/A,,Clear,310,2013-01-07 20:55:00
4:15 PM,46.8,27.1,46,30.42,10.0,Calm,Calm,-,N/A,,Clear,0,2013-01-07 21:15:00
4:35 PM,46.4,26.6,46,30.42,10.0,Calm,Calm,-,N/A,,Clear,0,2013-01-07 21:35:00
4:55 PM,45.1,27.3,50,30.43,10.0,Calm,Calm,-,N/A,,Clear,0,2013-01-07 21:55:00
5:15 PM,43.9,27.3,52,30.44,10.0,Calm,Calm,-,N/A,,Clear,0,2013-01-07 22:15:00
5:35 PM,41.0,29.1,63,30.44,10.0,Calm,Calm,-,N/A,,Clear,0,2013-01-07 22:35:00
5:55 PM,39.0,29.3,68,30.44,10.0,Calm,Calm,-,N/A,,Clear,0,2013-01-07 22:55:00
6:15 PM,38.7,28.9,68,30.44,10.0,Calm,Calm,-,N/A,,Clear,0,2013-01-07 23:15:00
6:35 PM,36.3,28.4,73,30.44,10.0,Calm,Calm,-,N/A,,Clear,0,2013-01-07 23:35:00
7:15 PM,34.3,27.9,77,30.45,10.0,North,-9999.0,-,N/A,,Clear,0,2013-01-08 00:15:00
7:35 PM,34.0,27.9,78,30.44,10.0,North,-9999.0,-,N/A,,Clear,0,2013-01-08 00:35:00
7:55 PM,33.4,27.7,79,30.44,10.0,North,-9999.0,-,N/A,,Clear,0,2013-01-08 00:55:00
8:15 PM,32.9,28.2,83,30.44,10.0,North,-9999.0,-,N/A,,Clear,0,2013-01-08 01:15:00
8:35 PM,33.1,27.9,81,30.44,10.0,North,-9999.0,-,N/A,,Clear,0,2013-01-08 01:35:00
8:55 PM,32.0,27.1,82,30.44,10.0,North,-9999.0,-,N/A,,Clear,0,2013-01-08 01:55:00
9:15 PM,31.3,27.3,85,30.44,10.0,North,-9999.0,-,N/A,,Clear,0,2013-01-08 02:15:00
9:35 PM,31.5,27.3,85,30.44,10.0,North,-9999.0,-,N/A,,Clear,0,2013-01-08 02:35:00
9:55 PM,31.5,27.7,86,30.44,10.0,North,-9999.0,-,N/A,,Clear,0,2013-01-08 02:55:00
10:15 PM,30.7,26.1,83,30.43,10.0,North,-9999.0,-,N/A,,Clear,0,2013-01-08 03:15:00
10:35 PM,30.0,27.3,90,30.43,10.0,North,-9999.0,-,N/A,,Clear,0,2013-01-08 03:35:00
10:55 PM,30.2,26.6,86,30.43,10.0,North,-9999.0,-,N/A,,Clear,0,2013-01-08 03:55:00
11:15 PM,29.3,26.2,88,30.43,10.0,North,-9999.0,-,N/A,,Clear,0,2013-01-08 04:15:00
11:35 PM,29.8,26.4,87,30.43,10.0,North,-9999.0,-,N/A,,Clear,0,2013-01-08 04:35:00
11:55 PM,28.9,26.2,90,30.42,10.0,North,-9999.0,-,N/A,,Clear,0,2013-01-08 04:55:00